TimeCDT,TemperatureF,Dew PointF,Humidity,Sea Level PressureIn,VisibilityMPH,Wind Direction,Wind SpeedMPH,Gust SpeedMPH,PrecipitationIn,Events,Conditions,WindDirDegrees,DateUTC
12:15 AM,73.4,71.6,94,29.87,5.0,Calm,Calm,-,N/A,,Mist,0,2013-09-01 05:15:00
12:35 AM,73.4,71.6,94,29.86,5.0,Calm,Calm,-,N/A,,Mist,0,2013-09-01 05:35:00
12:55 AM,73.4,71.6,94,29.86,5.0,Calm,Calm,-,N/A,,Mist,0,2013-09-01 05:55:00
1:15 AM,73.4,71.6,94,29.86,5.0,Calm,Calm,-,N/A,,Clear,0,2013-09-01 06:15:00
1:35 AM,71.6,69.8,94,29.86,5.0,Calm,Calm,-,N/A,,Mist,0,2013-09-01 06:35:00
1:55 AM,71.6,69.8,94,29.86,3.0,SE,3.5,-,N/A,,Mist,140,2013-09-01 06:55:00
2:15 AM,71.6,69.8,94,29.86,5.0,SE,3.5,-,N/A,,Mist,130,2013-09-01 07:15:00
2:35 AM,71.6,69.8,94,29.87,5.0,Calm,Calm,-,N/A,,Mist,0,2013-09-01 07:35:00
2:55 AM,71.6,69.8,94,29.87,4.0,SSE,4.6,-,N/A,,Mist,150,2013-09-01 07:55:00
3:15 AM,71.6,68.0,88,29.86,5.0,SSE,3.5,-,N/A,,Mist,150,2013-09-01 08:15:00
3:35 AM,71.6,68.0,88,29.86,7.0,SSE,3.5,-,N/A,,Clear,150,2013-09-01 08:35:00
3:55 AM,71.6,68.0,88,29.85,5.0,SSE,3.5,-,N/A,,Clear,150,2013-09-01 08:55:00
4:15 AM,71.6,68.0,88,29.86,5.0,Calm,Calm,-,N/A,,Clear,0,2013-09-01 09:15:00
4:35 AM,71.6,68.0,88,29.86,5.0,SE,3.5,-,N/A,,Clear,140,2013-09-01 09:35:00
4:55 AM,71.6,68.0,88,29.86,5.0,ESE,4.6,-,N/A,,Mist,110,2013-09-01 09:55:00
5:15 AM,71.6,68.0,88,29.86,6.0,SE,3.5,-,N/A,,Mist,130,2013-09-01 10:15:00
5:35 AM,71.6,68.0,88,29.87,5.0,SE,4.6,-,N/A,,Mist,140,2013-09-01 10:35:00
5:55 AM,71.6,68.0,88,29.87,5.0,Calm,Calm,-,N/A,,Mist,0,2013-09-01 10:55:00
6:15 AM,71.6,68.0,88,29.88,5.0,SSE,3.5,-,N/A,,Mist,150,2013-09-01 11:15:00
6:35 AM,69.8,68.0,94,29.88,4.0,SE,3.5,-,N/A,,Mist,130,2013-09-01 11:35:00
6:55 AM,71.6,68.0,88,29.88,3.0,SE,3.5,-,N/A,,Clear,140,2013-09-01 11:55:00
7:15 AM,71.6,68.0,88,29.89,3.0,South,3.5,-,N/A,,Clear,170,2013-09-01 12:15:00
7:35 AM,73.4,69.8,88,29.89,5.0,SE,3.5,-,N/A,,Clear,130,2013-09-01 12:35:00
7:55 AM,75.2,71.6,89,29.90,5.0,Calm,Calm,-,N/A,,Clear,0,2013-09-01 12:55:00
8:15 AM,77.0,71.6,83,29.89,7.0,SSE,3.5,-,N/A,,Clear,160,2013-09-01 13:15:00
8:35 AM,80.6,68.0,65,29.91,10.0,West,4.6,-,N/A,,Clear,270,2013-09-01 13:35:00
8:55 AM,82.4,68.0,62,29.91,10.0,WSW,6.9,-,N/A,,Clear,240,2013-09-01 13:55:00
9:15 AM,84.2,68.0,58,29.92,10.0,SW,6.9,-,N/A,,Clear,230,2013-09-01 14:15:00
9:35 AM,84.2,68.0,58,29.92,10.0,WSW,6.9,-,N/A,,Clear,250,2013-09-01 14:35:00
9:55 AM,86.0,68.0,55,29.93,10.0,WSW,8.1,-,N/A,,Partly Cloudy,250,2013-09-01 14:55:00
10:15 AM,84.2,69.8,62,29.95,10.0,North,12.7,16.1,N/A,,Mostly Cloudy,10,2013-09-01 15:15:00
10:35 AM,80.6,69.8,70,29.96,10.0,ENE,13.8,20.7,N/A,,Overcast,60,2013-09-01 15:35:00
10:55 AM,82.4,69.8,66,29.96,10.0,NE,11.5,-,N/A,,Scattered Clouds,50,2013-09-01 15:55:00
11:15 AM,78.8,71.6,78,29.97,9.0,East,11.5,18.4,N/A,Rain,Light Rain,80,2013-09-01 16:15:00
11:35 AM,80.6,68.0,65,29.98,10.0,ENE,13.8,-,N/A,,Scattered Clouds,60,2013-09-01 16:35:00
11:55 AM,78.8,68.0,69,29.98,10.0,ENE,11.5,-,N/A,,Mostly Cloudy,70,2013-09-01 16:55:00
12:15 PM,78.8,66.2,65,29.97,10.0,East,11.5,16.1,N/A,,Scattered Clouds,80,2013-09-01 17:15:00
12:35 PM,78.8,66.2,65,29.98,10.0,NE,12.7,-,N/A,,Scattered Clouds,40,2013-09-01 17:35:00
12:55 PM,77.0,66.2,69,29.98,10.0,NE,10.4,-,N/A,,Scattered Clouds,40,2013-09-01 17:55:00
1:15 PM,77.0,66.2,69,29.98,10.0,NNE,12.7,18.4,N/A,,Mostly Cloudy,30,2013-09-01 18:15:00
1:35 PM,77.0,66.2,69,29.96,10.0,ENE,10.4,-,N/A,,Overcast,60,2013-09-01 18:35:00
1:55 PM,80.6,66.2,61,29.95,10.0,East,10.4,-,N/A,,Scattered Clouds,80,2013-09-01 18:55:00
2:15 PM,80.6,66.2,61,29.92,10.0,East,10.4,-,N/A,,Clear,100,2013-09-01 19:15:00
2:35 PM,82.4,66.2,58,29.92,10.0,ESE,5.8,-,N/A,,Clear,120,2013-09-01 19:35:00
2:55 PM,84.2,66.2,55,29.94,10.0,North,11.5,18.4,N/A,,Clear,350,2013-09-01 19:55:00
3:15 PM,80.6,66.2,61,29.92,10.0,North,4.6,-,N/A,,Scattered Clouds,10,2013-09-01 20:15:00
3:35 PM,82.4,66.2,58,29.90,10.0,NE,5.8,-,N/A,,Partly Cloudy,50,2013-09-01 20:35:00
3:55 PM,82.4,66.2,58,29.88,10.0,Calm,Calm,-,N/A,,Clear,0,2013-09-01 20:55:00
4:15 PM,82.4,66.2,58,29.88,10.0,Calm,Calm,-,N/A,,Clear,0,2013-09-01 21:15:00
4:35 PM,82.4,66.2,58,29.87,10.0,Calm,Calm,-,N/A,,Clear,0,2013-09-01 21:35:00
4:55 PM,82.4,64.4,54,29.86,10.0,Calm,Calm,-,N/A,,Clear,0,2013-09-01 21:55:00
5:15 PM,84.2,64.4,51,29.84,10.0,Calm,Calm,-,N/A,,Clear,0,2013-09-01 22:15:00
5:35 PM,84.2,64.4,51,29.84,10.0,Calm,Calm,-,N/A,,Clear,0,2013-09-01 22:35:00
5:55 PM,84.2,64.4,51,29.85,10.0,Calm,Calm,-,N/A,,Clear,0,2013-09-01 22:55:00
6:15 PM,84.2,66.2,55,29.84,10.0,Calm,Calm,-,N/A,,Clear,0,2013-09-01 23:15:00
6:35 PM,84.2,66.2,55,29.85,10.0,Calm,Calm,-,N/A,,Clear,0,2013-09-01 23:35:00
6:55 PM,80.6,71.6,74,29.85,10.0,Calm,Calm,-,N/A,,Clear,0,2013-09-01 23:55:00
7:15 PM,80.6,69.8,70,29.86,10.0,Calm,Calm,-,N/A,,Clear,0,2013-09-02 00:15:00
7:35 PM,77.0,71.6,83,29.86,10.0,Calm,Calm,-,N/A,,Clear,0,2013-09-02 00:35:00
7:55 PM,75.2,71.6,89,29.86,10.0,Calm,Calm,-,N/A,,Unknown,0,2013-09-02 00:55:00
8:15 PM,75.2,69.8,83,29.87,10.0,Calm,Calm,-,N/A,,Clear,0,2013-09-02 01:15:00
8:35 PM,75.2,69.8,83,29.87,10.0,Calm,Calm,-,N/A,,Unknown,0,2013-09-02 01:35:00
8:55 PM,75.2,68.0,78,29.88,10.0,Calm,Calm,-,N/A,,Unknown,0,2013-09-02 01:55:00
9:15 PM,73.4,69.8,88,29.87,10.0,ESE,3.5,-,N/A,,Clear,120,2013-09-02 02:15:00
9:35 PM,73.4,69.8,88,29.88,10.0,Calm,Calm,-,N/A,,Unknown,0,2013-09-02 02:35:00
9:55 PM,73.4,69.8,88,29.88,10.0,Calm,Calm,-,N/A,,Clear,0,2013-09-02 02:55:00
10:15 PM,73.4,69.8,88,29.88,10.0,Calm,Calm,-,N/A,,Clear,0,2013-09-02 03:15:00
10:35 PM,73.4,68.0,83,29.88,10.0,Calm,Calm,-,N/A,,Unknown,0,2013-09-02 03:35:00
10:55 PM,73.4,69.8,88,29.88,10.0,Calm,Calm,-,N/A,,Unknown,0,2013-09-02 03:55:00
11:15 PM,73.4,69.8,88,29.88,10.0,SSE,4.6,-,N/A,,Unknown,150,2013-09-02 04:15:00
11:35 PM,73.4,69.8,88,29.88,10.0,Calm,Calm,-,N/A,,Unknown,0,2013-09-02 04:35:00
11:55 PM,73.4,69.8,88,29.88,10.0,SSE,3.5,-,N/A,,Unknown,150,2013-09-02 04:55:00